This is the latest recevied weather packets stored in our database for station/object IW0REF-9. If no packets are shown the sender has not sent any weather packets the latest 10 day(s).
| Time | Temp. | Humidity | Pressure | Rain* | Wind** | Luminosity | Snow |
|---|---|---|---|---|---|---|---|
| 1777891754 | 23.89° C | 25% | 1003.1 hPa | - | - | - | - |
| 1777890853 | 23.89° C | 26% | 1003.2 hPa | - | - | - | - |
| 1777889953 | 23.89° C | 27% | 1003.3 hPa | - | - | - | - |
| 1777889052 | 22.78° C | 28% | 1003.3 hPa | - | - | - | - |
| 1777888152 | 22.78° C | 29% | 1003.4 hPa | - | - | - | - |
| 1777887251 | 22.78° C | 29% | 1003.3 hPa | - | - | - | - |
| 1777886350 | 22.22° C | 30% | 1003.3 hPa | - | - | - | - |
| 1777885449 | 21.11° C | 31% | 1003.4 hPa | - | - | - | - |
| 1777884549 | 21.11° C | 32% | 1003.4 hPa | - | - | - | - |
| 1777883649 | 20° C | 33% | 1003.5 hPa | - | - | - | - |
| 1777882748 | 20° C | 33% | 1003.5 hPa | - | - | - | - |
| 1777881847 | 20.56° C | 33% | 1003.4 hPa | - | - | - | - |
| 1777880947 | 20° C | 34% | 1003.3 hPa | - | - | - | - |
| 1777880046 | 18.89° C | 35% | 1003.2 hPa | - | - | - | - |
| 1777879145 | 18.89° C | 35% | 1003.1 hPa | - | - | - | - |
| 1777878245 | 18.33° C | 35% | 1003.1 hPa | - | - | - | - |
| 1777877344 | 18.33° C | 35% | 1002.8 hPa | - | - | - | - |
| 1777876444 | 17.78° C | 35% | 1002.9 hPa | - | - | - | - |
| 1777875544 | 17.22° C | 36% | 1002.9 hPa | - | - | - | - |
| 1777874642 | 16.67° C | 36% | 1002.7 hPa | - | - | - | - |
| 1777873742 | 16.11° C | 36% | 1002.6 hPa | - | - | - | - |
| 1777872841 | 16.11° C | 37% | 1002.6 hPa | - | - | - | - |
| 1777871940 | 16.11° C | 37% | 1002.5 hPa | - | - | - | - |
| 1777871039 | 15.56° C | 37% | 1002.4 hPa | - | - | - | - |
| 1777870138 | 15° C | 38% | 1002.4 hPa | - | - | - | - |
* Rain since midnight (hover to see other rain measurements)
** Current wind speed in m/s (hover to see current wind gust speed)